FLOCK 3R-9 (43723 NORAD) Tracking and Keplerian Element Data

This shows tracking and keplerian element data for the satellite.

Feedback or suggestion? Click here.




ElementValue
Catalog43723
NameFLOCK 3R-9
Epoch Orbit167
Epoch Day344.189135
Epoch Year2018
RAAN49.1869
Inclination97.4829
Eccentricity0.001657
Argument of Perigee285.3152
Mean Anonmoly133.0057
Mean Motion15.25934092
Decay Rate2.046E-05
L11 43723U 18096E 18344.18913500 .00002046 00000-0 82388-4 0 9995
L22 43723 97.4829 49.1869 0016570 285.3152 133.0057 15.25934092 1675

Live tracking and technical data element details for FLOCK 3R-9 (NORAD 43723). FLOCK 3R-9 can be tracked NOW for your location showing map with azimuth and elevation plus other details from your city location.

Track the satellite on the map from your city or location and see movement details for azimuth, elevation, latitude, longitude, range, height, and movement on the map or in text.







IsCatalogInMostPopularTable: catalog: 43723, numindb: 4
Update: records affected: 1



GetName: 43723 FLOCK 3R-9

Hit Count: updated at: Tue, 11 Dec 2018 01:53:39 GMT